Location: Casilda
(33.0440°S, 61.1680°W)
Time: 08:56:38
(UTC-03:00)

ISS - Pass Details

Date: 20 September 2021
Orbit: 417 x 422 km, 51.6° (Epoch: 28 September)

Event Time Altitude Azimuth Distance (km) Brightness Sun altitude
Exits shadow 05:41:08 - 353° (N) 1,819 -0.7 -16.6°
Reaches altitude 10° 05:42:02 10° 1° (N) 1,516 -1.0 -16.4°
Maximum altitude 05:44:40 21° 52° (NE) 1,027 -1.3 -15.8°
Drops below altitude 10° 05:47:19 10° 102° (ESE) 1,530 0.5 -15.3°
Sets 05:49:46 0° 119° (ESE) 2,403 1.5 -14.8°
